Regional Weather Roundup
Issued by NWS

Home | Current Version | Previous Version | Graphics & Text | Print | Product List | Glossary On
Versions: 1 2 3 4 5 6 7 8 9 10 11 12 13 14 15 16 17 18 19 20 21 22 23 24 25 26 27 28 29 30 31 32 33 34 35 36 37 38 39 40 41 42 43 44 45 46 47 48 49 50
000
ASUS43 KOAX 211702
RWRNE

WEATHER ROUNDUP FOR NEBRASKA
NATIONAL WEATHER SERVICE OMAHA NE
1100 AM CST SUN JAN 21 2018

NOTES: SATELLITE DATA IS BEING USED TO AUGMENT CLOUD COVER ABOVE
       12000 FEET.
       "FAIR" INDICATES FEW OR NO CLOUDS BELOW 12,000 FEET WITH NO
       SIGNIFICANT WEATHER AND/OR OBSTRUCTIONS TO VISIBILITY.


NEZ001>004-019>022-054>056-211800-
NEBRASKA PANHANDLE

CITY           SKY/WX    TMP DP  RH WIND       PRES   REMARKS
SCOTTSBLUFF    MIX PCPN  29  25  85 N20       29.92R WCI  16
ALLIANCE       SNOW      28  27  96 N18       29.92R VSB 1/2 WCI  15
CHADRON        LGT SNOW  30  28  92 N7        30.00R VSB 3/4 WCI  23
GORDON         LGT SNOW  30  27  88 N20G25    29.94S WCI  17
KIMBALL        LGT SNOW  27  26  96 N14       29.86S VSB 3/4 WCI  15
SIDNEY         SNOW      28  27  96 N18       29.85F VSB 1/2 WCI  15
$$

NEZ057>060-069>072-079>082-211800-
SOUTHWEST NEBRASKA

CITY           SKY/WX    TMP DP  RH WIND       PRES   REMARKS
NORTH PLATTE   CLOUDY    34  28  79 NE24      29.82F WCI  21
IMPERIAL       CLOUDY    32  27  81 NE24G30   29.79S WCI  19
LEXINGTON      CLOUDY    34  32  93 N20       29.78F FOG     WCI  22
MCCOOK         CLOUDY    33  32  96 N21       29.75S WCI  21
OGALLALA       LGT SNOW  34  30  86 NE22G32   29.84F VSB 1   WCI  22
$$

NEZ005>010-023>029-035>040-094-211800-
NORTH CENTRAL NEBRASKA

CITY           SKY/WX    TMP DP  RH WIND       PRES   REMARKS
VALENTINE      LGT SNOW  34  31  88 N14       29.97R FOG     WCI  25
AINSWORTH      CLOUDY    33  33  99 N12G22    29.95S WCI  24
BROKEN BOW     CLOUDY    34  28  79 N20G28    29.83F WCI  23
O`NEILL        PTSUNNY   35  33  92 N14       29.94R WCI  25
ORD            CLOUDY    34  28  79 N13G22    29.87R WCI  25
THEDFORD       CLOUDY    34  32  92 NE17G28   29.91S WCI  23
$$

NEZ041-046>049-061>064-073>077-083>087-211800-
SOUTH CENTRAL NEBRASKA

CITY           SKY/WX    TMP DP  RH WIND       PRES   REMARKS
GRAND ISLAND   CLOUDY    34  34 100 N16       29.81S FOG     WCI  24
AURORA         FOG       35  34  99 N15       29.79S VSB 1   WCI  25
HASTINGS       SNOW      34  33  96 N21G29    29.76F VSB 1/2 WCI  22
HEBRON         CLOUDY    40  40  98 NE12      29.74S FOG     WCI  34
HOLDREGE       CLOUDY    33  33 100 N17G25    29.76S FOG     WCI  22
KEARNEY        CLOUDY    33  32  96 N21G31    29.76F FOG     WCI  21
YORK           MIX PCPN  36  36 100 N15       29.80R VSB 1   WCI  26
$$

NEZ011>018-030>034-042>045-211800-
NORTHEAST NEBRASKA

CITY           SKY/WX    TMP DP  RH WIND       PRES   REMARKS
NORFOLK        CLOUDY    45  29  53 N9        29.85R
ALBION         CLOUDY    34  30  84 N12       29.86R WCI  26
BLAIR          CLOUDY    39  37  93 NE14      29.80R FOG     WCI  31
COLUMBUS       MIX PCPN  36  34  92 N12       29.84  FOG     WCI  28
FREMONT        CLOUDY    38  35  87 N9        29.81F FOG     WCI  32
TEKAMAH        CLOUDY    37  31  78 N15       29.84S WCI  28
WAYNE          CLOUDY    35  32  90 N10       29.87R WCI  27
$$

NEZ050>053-065>068-078-088>093-211800-
SOUTHEAST NEBRASKA

CITY           SKY/WX    TMP DP  RH WIND       PRES   REMARKS
LINCOLN        LGT RAIN  39  37  92 N16       29.79F FOG     WCI  30
OMAHA EPPLEY   LGT RAIN  41  39  93 N9        29.81R FOG
BEATRICE       FOG       41  41 100 NE9       29.75R VSB 3/4
FALLS CITY     CLOUDY    48  47  96 SE5       29.75S FOG
NEBRASKA CITY  LGT RAIN  40  40 100 NE6       29.76F VSB<1/4
PLATTSMOUTH    FOG       40  40 100 NE7       29.77F VSB 3/4
$$

NEZ044-045-051>053-067-211800-
OMAHA AREA

CITY           SKY/WX    TMP DP  RH WIND       PRES   REMARKS
OMAHA EPPLEY   LGT RAIN  41  39  93 N9        29.81R FOG
BLAIR          CLOUDY    39  37  93 NE14      29.80R FOG     WCI  31
FREMONT        CLOUDY    38  35  87 N9        29.81F FOG     WCI  32
MILLARD        DRIZZLE   42  40  93 N5        29.80S
OFFUTT AFB     LGT RAIN  41  40  97 NE8       29.78F FOG
PLATTSMOUTH    FOG       40  40 100 NE7       29.77F VSB 3/4
WAHOO          DRIZZLE   39  36  90 N13       29.80S WCI  31
$$




USA.gov is the U.S. government's official web portal to all federal, state and local government web resources and services.